Theta_e
306 309 313 314 313 314 314 314 314 314 315 315 315 316 314 314 314 313 313 313 311 310 309 308 308 307 308 308 307 308 308 305 307 309 305 303 305 304 304 304 304 304 304 304 304 304 304 304 304 304 304 305 305 306 307 309 311 313 314 315 316 317 318 318 318 317 316 316 316 316 315 314 313 313
310 313 315 316 315 315 314 313 314 314 315 315 316 316 315 315 315 315 315 314 312 312 310 309 308 307 307 307 306 306 305 304 306 308 305 303 304 303 303 303 303 303 303 303 304 304 304 303 303 304 304 304 304 304 305 305 305 306 307 308 308 309 310 310 311 311 311 311 311 311 311 311 312 313
312 314 316 316 314 313 314 314 315 315 315 315 316 316 316 317 316 316 316 316 314 313 311 309 308 308 307 307 307 306 306 305 305 305 305 304 304 304 304 303 303 303 303 303 303 303 303 303 303 303 303 303 303 303 303 303 304 304 304 305 305 305 306 306 307 307 307 307 308 308 308 308 309 311
313 314 315 315 314 314 315 316 316 317 316 316 316 316 316 317 317 317 316 316 314 313 312 310 308 309 308 307 307 306 306 307 306 305 306 305 305 306 306 305 305 304 304 304 304 304 304 304 304 304 304 304 304 304 303 303 303 303 303 303 303 304 304 304 305 305 306 306 306 307 307 307 308 308
314 315 314 313 313 314 316 315 316 316 316 316 316 316 316 316 316 316 316 316 315 313 312 310 308 309 309 307 307 307 308 308 307 306 306 306 305 306 306 306 306 306 305 306 306 306 306 306 306 306 306 306 305 305 305 304 304 304 304 304 303 303 303 303 303 303 304 304 305 305 305 305 306 307
314 314 314 312 311 313 314 314 314 314 315 315 315 315 316 316 316 316 316 315 315 313 312 310 309 309 309 307 307 308 309 309 308 306 305 306 305 305 306 306 305 306 307 307 307 307 307 307 306 306 306 306 306 306 306 306 306 305 305 305 304 304 304 303 303 303 303 303 303 304 304 303 303 304
312 313 314 312 310 310 311 313 314 314 314 314 315 315 315 315 315 315 315 315 315 314 312 311 309 309 309 309 308 307 308 308 308 307 307 306 306 307 307 307 306 306 307 308 308 307 307 307 307 306 306 306 306 306 306 306 306 306 306 306 306 306 305 305 304 304 303 303 303 302 303 302 302 302
312 313 314 313 311 310 311 313 314 313 313 314 314 315 314 314 314 314 315 314 314 314 313 312 311 310 311 310 309 308 309 308 308 308 308 308 308 308 308 309 308 308 308 308 308 307 307 307 307 306 306 306 306 306 306 306 305 305 305 305 305 305 305 305 305 305 304 304 303 303 302 302 302 302
315 315 316 316 315 314 314 315 315 314 314 314 315 315 314 314 314 315 315 315 314 314 314 313 312 312 312 311 310 310 310 310 310 310 310 310 309 309 309 310 310 309 308 308 308 307 306 304 304 304 304 304 304 305 305 305 305 305 305 305 304 304 304 304 304 304 304 304 303 303 303 302 302 302
317 317 317 317 317 317 317 317 316 316 315 315 315 315 315 314 313 314 316 316 315 315 314 314 313 313 313 312 312 311 310 310 311 311 310 311 311 311 310 310 310 309 309 308 308 306 304 303 302 302 302 303 303 303 304 304 304 305 304 304 304 303 303 303 303 302 303 303 303 303 302 302 302 302
318 318 318 318 318 318 318 317 317 317 316 316 316 315 315 314 313 314 315 316 315 315 315 314 314 314 313 313 313 312 310 310 311 311 311 311 311 311 310 310 309 309 309 308 307 306 305 303 303 303 303 303 303 303 303 303 304 304 304 304 304 303 303 303 302 302 301 301 301 301 301 301 301 301
319 319 318 318 318 318 318 317 317 316 316 316 316 315 315 315 314 314 314 315 315 315 315 315 314 314 313 313 312 312 312 311 312 311 311 311 311 310 310 309 309 308 308 308 307 306 305 304 303 303 303 303 304 303 303 303 303 303 303 303 303 303 302 302 301 301 301 300 300 300 300 300 300 301
319 318 318 318 318 318 317 316 316 316 316 316 316 315 315 315 315 314 314 314 315 314 314 314 313 313 313 313 313 313 312 312 312 311 311 310 310 310 309 309 308 307 307 307 307 306 305 304 303 303 304 304 304 303 302 302 302 302 302 301 301 301 301 301 301 300 300 300 300 299 299 300 300 300
318 317 317 317 318 318 318 316 315 315 315 315 316 315 315 315 315 314 314 314 314 314 314 313 312 312 312 312 312 312 312 311 311 310 310 310 309 309 308 308 308 307 307 307 307 305 304 303 303 303 304 304 303 303 303 302 301 301 300 299 299 299 299 300 300 300 300 299 299 299 299 299 299 299
316 316 316 316 317 317 317 316 315 315 315 315 315 315 315 315 315 314 314 314 314 314 314 313 312 312 312 312 312 311 311 310 310 310 309 308 309 309 308 308 307 307 306 306 306 304 302 303 303 303 303 303 303 303 303 302 300 300 299 298 298 298 298 299 299 299 299 299 299 299 299 299 299 299
314 314 315 316 316 316 316 315 314 313 314 314 315 316 316 316 316 315 315 314 313 313 313 313 313 312 312 311 311 310 310 310 309 308 307 307 308 308 307 307 307 306 305 305 304 303 301 302 302 302 302 303 303 303 302 301 300 299 298 298 298 298 298 298 298 298 298 298 299 299 299 299 299 298
312 311 310 312 313 313 311 310 310 310 309 309 310 313 314 316 316 317 317 316 313 312 312 312 312 312 311 311 310 310 309 308 307 306 306 307 306 306 306 306 305 304 303 303 303 303 302 302 302 303 302 302 302 302 302 301 300 299 298 298 297 297 298 298 298 298 298 298 298 299 299 299 299 299
312 310 306 308 313 312 305 302 305 308 307 303 304 306 308 310 313 315 317 317 315 312 310 308 309 310 310 310 309 308 307 307 306 305 305 305 305 305 305 304 303 303 303 303 303 303 303 303 303 303 302 301 301 301 301 301 300 299 299 298 298 298 298 298 298 297 298 298 298 298 298 298 298 298
311 307 303 305 310 309 303 300 303 305 305 302 302 304 305 306 308 310 313 315 315 313 310 307 306 307 307 306 306 306 306 306 305 305 305 304 304 304 303 303 303 303 303 303 303 303 303 303 303 302 302 302 301 301 301 300 300 299 299 299 299 299 298 298 298 298 297 297 297 297 297 298 298 298
309 306 305 308 308 303 302 302 302 302 303 302 302 303 304 305 306 309 312 313 312 311 309 307 306 305 305 305 306 306 305 305 304 304 304 303 303 302 302 303 303 302 302 302 301 302 301 301 301 301 302 302 301 301 301 300 300 300 300 300 300 299 299 298 298 298 298 298 297 297 297 297 297 297
308 304 306 308 306 302 302 302 302 302 302 304 305 305 306 307 309 311 311 310 309 308 306 306 305 305 305 305 305 305 305 304 304 303 303 303 302 301 300 301 301 301 301 301 300 301 301 301 301 301 301 301 301 300 300 300 300 301 301 300 299 299 299 299 298 298 298 298 297 297 297 296 296 296
305 302 303 303 302 302 302 302 302 302 302 306 308 307 307 308 309 308 308 307 307 306 305 305 305 305 306 305 305 305 304 303 303 301 301 301 299 299 299 300 300 300 300 300 300 301 301 301 301 301 300 300 300 300 300 300 301 301 300 300 300 299 299 299 299 298 298 298 297 297 297 297 297 297
302 302 303 302 302 302 302 302 302 301 302 308 311 309 308 309 308 307 306 306 306 305 305 306 305 305 305 304 303 303 302 301 301 300 299 299 298 299 300 300 300 300 300 300 300 300 300 300 299 299 299 299 299 299 300 300 300 300 300 300 300 300 299 299 299 299 298 298 298 297 297 297 297 297
302 303 303 302 302 302 302 302 302 301 302 307 309 309 309 309 308 308 307 305 305 305 305 305 304 303 303 302 302 301 301 301 300 299 299 298 298 299 299 299 299 299 299 299 299 298 298 298 298 298 298 298 299 299 299 299 299 299 299 300 300 300 300 299 299 299 298 298 297 297 297 298 298 298
303 303 303 302 302 302 302 301 301 301 301 303 304 305 306 307 307 307 306 305 304 304 303 303 303 302 302 302 301 301 301 300 300 299 299 299 299 299 298 298 298 298 298 298 297 297 297 297 297 297 297 297 298 298 298 298 298 298 298 298 299 299 299 299 299 298 298 298 297 297 297 298 297 297
305 303 302 302 302 302 302 301 301 301 300 301 301 301 302 303 304 304 304 303 303 302 302 302 302 301 301 301 301 301 300 300 299 299 299 299 298 298 297 297 297 297 297 297 297 296 296 296 297 296 296 297 297 297 297 297 297 297 297 297 297 298 298 298 298 297 297 297 297 297 297 297 297 297
306 304 302 302 302 302 302 301 301 301 300 300 300 301 301 301 302 302 302 302 302 301 301 301 300 300 301 300 300 300 300 299 299 298 297 297 297 296 296 296 297 296 296 296 296 296 296 295 295 295 295 296 296 296 296 296 296 296 296 296 296 296 296 297 297 297 296 296 296 296 296 296 297 297
307 304 303 303 303 302 302 301 301 300 300 300 300 300 301 301 301 301 301 301 301 301 300 300 300 300 300 300 299 299 298 297 297 297 296 296 296 296 297 296 296 296 296 296 295 295 294 294 294 294 294 294 294 295 295 295 295 295 295 295 295 295 295 295 295 295 295 295 295 295 295 295 296 296
305 304 303 303 303 302 301 301 300 300 300 300 300 300 300 300 300 300 300 300 300 300 300 300 299 299 299 298 298 298 297 296 296 297 297 296 296 296 296 295 295 295 295 295 294 294 294 294 294 294 294 294 294 294 294 294 294 294 294 294 294 295 295 295 295 295 295 295 295 294 295 295 295 296
304 303 303 303 302 301 300 299 300 300 300 300 300 299 299 299 299 299 299 299 299 299 299 299 298 298 298 298 297 297 297 297 297 297 296 296 295 295 294 294 294 294 294 294 294 294 294 294 294 293 293 293 293 293 293 294 294 294 294 294 294 294 294 294 294 294 294 294 294 294 294 294 295 296
303 303 303 302 301 300 300 300 300 300 300 299 299 299 299 299 299 298 298 297 297 297 297 297 297 297 297 296 296 296 297 297 296 296 295 295 294 294 294 293 293 293 293 293 294 294 293 293 293 293 293 293 293 293 293 293 293 293 294 294 294 294 294 294 294 294 294 294 294 294 294 294 294 295
303 303 302 301 300 300 300 300 300 300 299 299 299 299 299 298 298 298 297 296 296 297 297 296 295 295 295 296 296 296 296 296 295 295 295 294 294 294 293 293 293 293 293 293 293 293 293 293 293 293 293 293 293 293 293 293 293 293 293 294 294 294 294 294 294 294 294 293 293 293 294 294 294 295
303 302 301 300 300 300 300 300 300 300 299 298 298 299 298 298 298 297 296 296 296 296 295 294 294 294 295 295 295 295 295 295 295 294 293 293 293 293 293 293 293 293 293 293 293 293 293 293 293 293 293 293 293 293 293 293 293 293 293 294 294 294 294 294 294 294 293 293 293 293 294 294 295 295
302 301 300 300 300 300 300 300 300 300 299 298 298 298 298 297 297 296 295 295 295 294 293 293 294 295 295 295 295 294 294 294 293 293 293 292 292 292 292 293 293 293 293 293 293 293 293 293 293 293 293 293 293 293 293 293 293 294 294 294 294 294 294 293 293 293 293 293 294 294 294 294 295 295
301 300 300 300 299 299 299 299 299 299 298 298 297 297 297 297 296 295 295 294 294 293 293 294 294 294 294 294 294 294 293 293 292 292 292 292 292 292 292 292 292 292 292 292 292 293 293 293 293 293 293 293 293 293 293 293 293 293 294 293 293 293 293 293 293 293 293 293 293 293 293 294 294 295
300 300 300 299 299 299 299 299 299 299 298 298 297 297 297 296 295 295 294 294 293 293 293 293 294 294 294 294 294 293 293 292 292 292 292 292 292 292 292 292 292 292 292 292 292 293 293 293 293 293 293 293 293 293 293 294 293 293 293 293 293 293 293 292 293 292 292 293 293 293 293 294 294 295
299 300 299 299 299 299 299 299 298 298 298 297 297 297 296 296 295 295 294 293 293 293 293 293 294 294 294 293 293 293 292 292 292 292 292 292 292 291 291 291 292 292 292 292 292 292 293 293 293 292 292 292 292 293 293 293 293 293 293 293 293 292 292 292 292 292 292 292 292 292 293 294 294 294
299 299 299 299 299 299 299 298 298 298 298 297 296 296 296 296 295 294 293 293 293 293 293 293 294 294 293 293 293 292 292 292 292 291 291 291 291 291 291 291 291 291 291 291 292 292 292 292 292 292 292 292 293 293 293 293 293 293 293 293 292 292 292 292 292 291 291 292 292 293 293 294 294 294
299 299 299 299 300 299 299 298 298 298 297 296 296 296 296 295 294 293 293 293 293 292 292 293 294 293 293 293 293 292 292 292 291 291 291 291 291 291 291 291 291 291 291 291 291 291 292 292 292 292 292 292 293 292 292 292 293 293 293 293 292 292 292 291 291 291 291 291 292 292 293 293 294 294
299 299 299 300 300 299 298 297 297 297 297 296 296 296 295 294 293 292 292 292 292 291 292 293 294 293 293 293 292 292 292 292 291 291 291 291 291 290 290 290 290 290 290 291 291 291 292 292 293 292 292 292 292 292 292 293 293 294 294 293 293 292 292 292 292 291 291 291 292 292 293 293 294 294
299 299 299 300 299 298 297 297 297 297 296 296 296 296 294 293 292 292 292 292 291 291 292 293 293 293 293 293 292 292 292 292 291 291 291 290 290 290 290 290 290 290 291 291 291 291 292 293 293 293 293 293 293 293 293 293 294 294 293 293 293 293 292 292 292 292 292 291 291 292 292 293 293 294
299 299 299 299 299 298 297 297 297 297 296 296 296 295 294 293 292 291 292 293 292 292 292 293 293 293 293 292 292 292 292 291 291 291 290 290 290 290 290 290 290 290 290 291 291 292 293 293 293 293 293 293 293 293 293 294 294 293 293 293 293 293 293 293 292 292 292 292 292 292 292 293 293 293
299 299 298 298 298 298 297 298 297 296 296 295 295 294 293 292 292 292 293 293 294 293 292 292 292 292 292 291 291 291 291 291 290 290 290 290 290 290 290 290 290 290 290 290 291 292 293 293 293 293 293 293 293 292 293 294 294 293 293 293 293 293 293 293 293 292 292 293 293 293 293 293 293 293
298 298 298 297 297 297 297 297 296 296 295 294 294 293 292 292 292 292 293 293 293 292 291 291 292 291 290 290 291 291 291 290 290 290 290 290 290 290 290 290 290 290 291 291 291 291 292 293 293 293 293 293 293 292 293 293 293 293 293 293 293 293 293 292 292 292 292 293 293 293 294 294 294 293
297 297 297 296 297 297 296 296 295 295 294 294 293 292 292 291 291 292 293 293 292 291 290 290 290 289 289 290 291 291 290 290 290 290 290 290 290 290 290 290 290 290 291 291 291 291 292 292 293 293 293 293 293 293 293 293 293 293 293 293 293 293 293 293 292 292 292 292 293 293 293 294 294 293
Wind_Speed
9 10 9 8 7 7 6 6 7 6 6 7 6 4 4 4 5 6 5 4 3 3 3 4 3 3 3 4 5 4 3 7 8 7 9 9 8 9 9 9 10 10 10 11 11 11 11 11 12 11 11 11 11 11 11 11 12 12 13 14 15 15 16 16 17 18 18 19 19 18 18 18 18 18
11 10 9 8 8 8 7 8 8 7 7 6 4 3 3 1 1 5 6 6 4 2 3 3 3 2 3 4 4 2 3 6 5 4 8 9 9 9 8 9 10 10 10 10 10 11 11 11 12 12 12 12 13 13 13 13 13 13 14 14 15 15 16 17 18 18 19 20 20 20 19 19 19 19
12 12 10 8 9 10 9 9 9 7 7 5 3 3 2 2 4 4 4 4 4 3 2 1 1 1 1 1 3 4 5 6 4 5 8 9 9 9 8 8 10 10 10 10 11 11 11 12 12 12 12 12 12 13 13 14 14 14 15 15 16 16 16 17 17 18 18 18 19 19 19 19 19 19
11 11 10 9 10 10 8 7 8 6 5 5 4 4 4 3 5 4 2 3 4 3 1 1 1 1 1 2 3 4 5 6 6 5 7 9 11 12 11 12 11 11 12 11 12 12 12 12 12 13 13 13 13 13 13 14 14 15 15 16 16 17 17 18 18 19 19 19 19 18 18 18 18 19
10 8 7 9 10 8 6 5 5 4 4 5 4 3 3 2 3 2 2 3 3 1 0 1 1 3 2 1 1 2 4 6 6 4 7 10 11 10 12 16 15 14 14 14 14 15 15 15 14 15 15 15 15 15 15 15 15 15 15 16 16 17 17 18 19 20 20 21 20 20 19 19 19 19
9 8 6 7 8 7 7 6 3 3 4 2 2 2 1 1 2 1 1 2 1 1 1 1 2 2 3 0 4 5 5 6 4 4 7 8 6 6 9 13 18 18 17 18 18 18 19 19 18 18 18 18 18 18 18 18 17 17 17 17 17 17 18 18 19 20 21 21 22 22 21 21 20 20
8 8 6 6 7 8 8 7 3 4 5 3 2 4 2 1 1 1 1 1 1 1 1 1 3 3 4 2 3 5 7 9 8 4 6 6 6 7 7 10 16 20 20 20 20 20 21 21 21 21 21 21 21 21 21 20 20 20 20 20 20 20 20 20 20 20 21 21 22 23 23 23 22 21
6 7 6 5 6 7 7 6 3 4 6 3 2 4 3 2 2 1 1 1 0 1 1 2 2 3 5 4 3 4 8 11 11 7 7 7 7 9 11 11 14 19 24 26 23 21 22 23 22 22 23 24 24 24 24 23 23 23 22 22 22 22 22 22 22 22 22 22 23 23 24 24 23 22
6 6 6 5 5 6 6 5 4 4 6 4 3 4 4 4 4 2 1 2 2 3 3 4 4 4 5 5 5 7 8 10 11 9 9 9 10 13 16 15 14 18 26 31 30 27 26 26 26 25 24 24 24 25 25 25 25 25 24 25 24 24 24 24 24 23 23 23 23 24 24 24 24 24
7 7 6 6 6 6 6 6 5 5 6 5 4 5 6 5 4 4 3 3 4 4 5 5 5 6 6 6 6 7 9 10 10 10 10 10 12 15 16 16 15 17 22 28 31 29 26 27 29 31 30 27 26 26 25 24 25 26 26 26 26 26 26 25 25 25 24 24 24 24 24 24 25 25
7 7 8 8 8 9 8 8 7 7 7 7 6 7 7 5 3 4 5 5 5 5 5 6 6 6 7 8 7 7 8 9 10 11 11 12 14 16 15 16 17 16 17 22 24 22 22 25 29 31 32 31 29 29 28 26 26 26 25 25 26 27 27 27 27 27 26 26 25 25 25 25 25 25
9 9 9 10 9 10 10 10 10 9 10 10 9 8 8 7 6 6 6 6 7 8 7 7 8 8 9 9 9 9 9 10 11 11 12 14 17 17 16 17 17 17 16 17 18 18 19 23 27 29 30 29 27 29 30 30 29 27 25 25 27 28 28 28 29 28 28 28 27 26 26 25 25 25
12 11 11 11 10 12 15 15 14 13 13 13 11 9 9 9 9 9 8 8 8 9 9 10 10 10 11 10 10 10 9 11 13 13 13 16 17 18 19 19 16 15 16 16 18 19 20 24 28 28 24 21 23 27 30 31 32 29 27 27 28 28 29 29 29 29 29 29 29 28 27 26 26 25
13 11 12 13 13 14 16 17 17 15 15 16 15 13 13 12 12 11 11 10 11 11 12 12 12 11 12 12 11 11 11 13 13 13 13 15 18 19 20 20 17 16 16 17 19 24 28 30 29 24 19 18 22 24 24 27 31 32 30 29 28 29 29 29 29 29 29 30 30 29 29 28 27 26
11 11 10 10 11 12 14 15 16 16 15 16 17 17 17 17 17 16 14 12 11 12 14 13 12 12 13 12 11 12 13 12 12 13 14 16 18 19 20 22 22 20 18 19 25 31 34 31 25 21 20 19 20 21 22 26 31 32 31 30 29 28 29 29 29 28 28 29 29 29 29 29 28 27
12 12 10 8 8 10 13 13 13 14 14 16 17 17 17 18 20 21 20 16 14 13 12 11 11 12 13 12 11 12 13 13 16 19 19 17 17 18 20 21 23 24 25 28 32 35 33 29 25 22 21 19 19 21 24 28 32 33 33 33 31 30 29 29 28 28 27 28 28 28 28 29 29 28
17 15 14 11 10 13 16 15 12 11 12 13 15 16 17 18 19 20 20 20 19 18 14 9 7 9 10 9 10 15 16 17 20 22 20 18 19 22 23 25 30 33 32 30 29 29 29 27 23 21 21 21 21 21 23 28 32 34 35 35 34 32 29 28 27 27 27 27 27 27 27 27 28 28
23 18 17 14 12 14 15 12 9 9 11 11 10 12 15 16 17 17 18 19 20 21 20 16 11 11 13 12 13 18 20 21 22 23 22 24 26 29 32 34 35 32 25 21 22 24 24 22 20 21 22 23 22 22 23 27 31 33 35 35 34 33 31 31 29 27 26 26 26 27 27 26 27 27
22 19 17 14 14 14 12 9 8 9 10 10 9 11 13 14 15 17 17 18 19 20 21 19 17 18 18 17 18 21 21 22 23 25 26 28 30 31 31 29 26 21 18 17 20 23 22 20 22 23 22 22 23 23 23 26 29 32 33 32 32 32 33 32 29 26 24 24 25 26 27 27 27 27
16 15 13 11 13 14 11 9 9 9 10 10 10 12 13 14 14 15 14 15 15 17 18 18 18 19 20 20 21 22 22 22 24 25 27 29 28 25 23 22 20 19 19 17 19 23 24 22 23 24 22 22 24 25 25 27 28 28 28 29 31 32 31 28 26 26 26 25 25 27 28 28 29 28
16 15 12 11 13 13 10 9 9 8 9 9 10 12 13 13 13 12 11 11 12 13 15 16 18 19 20 21 22 23 23 24 25 27 28 28 26 22 21 22 21 20 19 18 19 22 23 21 22 24 23 23 24 26 26 24 23 24 26 28 29 28 26 26 27 29 30 29 28 27 26 26 27 28
17 15 14 14 14 11 10 9 7 7 7 7 8 10 10 9 10 10 10 10 11 13 15 17 19 20 21 22 23 24 25 25 26 26 25 25 24 22 20 20 20 20 19 17 17 18 18 19 20 22 24 24 23 22 21 20 19 22 25 26 27 27 28 30 29 27 28 29 28 25 23 22 22 23
17 15 15 15 12 10 9 7 6 6 6 7 7 7 6 5 7 9 10 10 11 13 15 18 20 22 24 25 25 26 25 23 22 22 21 21 20 18 17 17 19 19 17 15 17 19 19 20 21 21 24 26 24 20 19 19 18 20 22 24 26 27 29 31 27 24 26 28 27 26 24 23 22 23
18 16 15 14 12 10 8 6 6 6 7 9 8 7 8 8 9 11 12 12 12 14 15 18 20 21 22 21 21 21 21 20 19 19 21 20 17 15 18 19 19 19 18 18 21 23 22 22 23 22 22 25 26 23 21 20 20 20 21 23 24 24 25 26 24 24 27 29 28 26 24 22 22 22
18 16 15 14 11 9 7 6 6 6 8 9 9 9 10 13 14 14 14 14 14 15 15 15 15 14 14 13 13 13 16 19 19 18 19 19 15 15 19 21 21 22 21 20 21 23 23 23 23 23 22 23 25 25 24 23 23 22 22 22 22 22 22 22 22 23 25 26 26 25 22 21 20 19
17 16 14 13 11 8 7 6 5 5 6 8 9 9 11 13 14 15 14 12 11 10 10 10 9 10 10 11 11 12 13 15 16 15 17 19 20 20 20 20 22 24 23 21 20 21 23 23 23 23 24 24 24 25 26 25 22 21 21 20 20 20 20 20 20 20 21 22 22 22 22 21 20 19
17 15 12 11 10 8 6 4 3 3 4 6 7 8 9 11 12 13 12 10 8 7 7 8 10 10 10 10 11 11 11 13 18 21 22 22 22 21 19 18 21 24 24 22 20 20 22 22 21 20 21 23 24 24 23 23 22 21 20 20 19 19 19 19 19 19 20 21 21 21 21 20 18 18
17 13 10 10 8 6 4 3 2 3 4 5 7 8 8 9 9 8 7 7 7 7 8 9 9 9 9 10 10 11 14 17 19 20 19 19 18 19 19 19 20 22 23 21 18 17 17 18 18 18 18 20 21 22 22 22 22 21 21 21 20 19 18 18 19 19 20 20 20 20 20 19 18 18
17 12 10 8 6 5 3 2 2 3 5 6 6 7 7 7 6 4 4 4 6 7 7 7 8 8 9 10 10 13 17 19 18 17 17 18 18 19 20 19 18 18 18 17 16 15 15 16 17 17 17 18 19 20 21 21 22 21 20 21 20 19 18 18 19 19 19 19 19 19 19 19 18 17
14 11 10 7 5 5 3 2 3 4 5 5 6 6 6 4 3 4 5 6 6 6 6 7 8 8 9 11 13 15 16 15 15 16 18 18 17 16 16 17 16 16 15 14 15 15 15 15 16 16 17 17 18 19 20 20 21 20 19 19 20 20 18 17 18 18 18 19 19 19 19 19 18 17
13 11 9 7 6 5 3 3 4 5 4 5 5 4 4 4 5 7 8 8 7 6 5 6 7 9 12 13 14 14 12 12 14 16 15 16 16 15 15 16 17 16 15 14 14 14 14 14 14 16 17 17 17 18 18 19 20 20 18 18 18 19 17 17 17 18 18 19 19 18 19 18 17 17
14 11 10 9 7 5 4 4 4 4 3 3 3 2 3 5 7 7 7 7 6 3 4 7 10 12 14 13 11 11 12 13 14 14 14 15 15 14 14 15 16 16 15 15 14 14 14 14 14 14 15 16 17 17 18 18 19 19 19 17 17 17 16 16 16 16 17 17 18 18 18 18 17 15
15 13 11 10 8 6 5 4 3 4 5 4 3 3 4 3 3 4 4 3 3 4 8 12 13 13 12 11 11 12 13 14 14 14 14 14 13 14 14 15 15 15 16 16 15 15 15 14 14 14 15 17 17 17 17 18 18 18 18 17 17 16 16 15 15 15 16 17 17 17 18 17 16 15
15 14 13 11 9 7 6 6 8 8 6 4 3 5 4 3 4 5 4 2 4 8 12 13 11 10 10 10 11 12 13 13 13 13 13 13 13 14 14 14 15 15 16 16 16 15 15 16 15 14 15 15 16 15 15 17 19 18 18 17 17 16 16 16 15 15 16 18 19 20 21 20 17 15
16 14 13 12 10 8 8 9 11 9 6 5 5 4 4 3 4 4 3 4 7 10 10 9 8 9 10 11 12 13 13 13 13 13 13 13 13 13 13 15 16 15 15 16 16 16 16 16 15 15 16 16 16 16 15 15 17 18 18 18 17 16 17 17 17 17 18 19 19 21 22 21 18 15
15 13 13 12 12 11 11 11 10 8 6 6 6 4 3 2 1 2 4 7 9 10 9 8 7 8 10 11 12 13 13 13 13 13 13 13 12 13 14 15 15 16 16 16 17 16 15 14 14 16 17 17 17 18 17 16 15 15 17 19 18 18 18 19 18 19 21 22 21 21 20 20 18 15
14 13 13 13 12 11 11 11 10 8 7 6 6 5 4 3 2 2 5 6 7 7 8 8 7 8 10 11 12 13 13 13 14 13 13 13 13 14 14 15 16 17 17 17 18 17 16 15 16 17 17 17 18 19 20 19 18 16 17 20 21 21 22 23 23 22 22 21 19 17 17 18 18 16
15 14 13 12 11 10 11 11 9 7 6 6 5 5 4 2 2 2 4 4 4 6 8 7 6 8 10 11 12 13 13 13 13 12 13 13 13 14 15 16 17 17 17 18 18 17 16 16 17 16 15 16 18 19 20 23 24 22 22 25 26 26 24 24 24 22 19 16 15 15 15 17 18 17
14 13 12 12 11 10 11 10 8 6 7 6 4 4 3 2 3 3 3 3 5 7 7 5 6 9 10 10 11 12 13 13 13 13 13 13 14 15 17 17 18 19 19 19 19 18 17 16 17 16 15 16 19 21 23 27 29 28 24 21 21 20 18 18 18 18 16 14 15 15 16 17 17 17
12 13 12 12 11 10 10 9 7 6 7 5 4 4 4 2 3 4 3 3 5 8 7 4 7 10 10 10 11 12 13 13 13 13 14 14 15 16 17 18 19 19 19 19 20 20 19 18 18 18 18 18 21 22 24 25 26 22 17 14 13 14 15 15 15 14 13 13 15 16 16 15 15 15
14 14 13 11 11 10 9 8 7 6 6 4 4 6 5 4 5 6 4 4 7 9 8 5 7 9 10 10 11 12 13 14 13 13 14 14 16 17 17 18 19 18 18 20 21 20 19 18 17 17 17 18 19 19 20 20 18 16 13 13 13 14 14 14 14 14 14 14 15 16 16 15 14 14
15 14 12 11 11 10 9 8 6 5 5 4 4 5 5 5 6 5 4 5 8 9 8 6 7 9 10 11 12 12 13 13 12 12 13 14 16 16 16 16 17 18 20 23 22 20 18 17 17 17 18 18 17 18 18 16 15 14 13 12 12 13 13 13 14 15 16 17 17 17 17 16 16 14
15 13 12 11 11 10 8 7 6 5 5 5 5 6 5 5 4 3 2 3 4 6 7 7 7 9 12 13 14 13 11 11 11 13 15 17 17 17 17 17 18 19 21 23 22 20 19 18 18 18 18 17 16 17 17 16 14 14 13 12 13 15 15 15 15 16 16 16 16 16 16 16 17 17
14 13 12 12 11 9 8 7 6 5 5 5 5 5 5 4 3 2 1 1 3 6 7 7 8 11 14 16 15 12 10 10 12 14 16 16 17 18 18 18 19 20 20 21 22 22 21 20 18 16 17 16 15 15 16 16 14 13 13 13 13 13 13 14 16 16 14 12 11 11 11 12 13 14
14 13 12 12 11 9 8 8 6 5 6 5 5 4 4 3 3 1 1 2 5 7 8 9 10 13 17 17 14 11 10 11 12 14 15 15 16 17 18 18 19 20 19 19 21 23 22 21 18 16 16 17 15 14 14 13 11 11 12 11 9 10 13 14 13 12 11 11 9 8 7 7 7 8
Wind_Direction
133 118 101 97 103 105 112 118 117 114 120 138 142 146 165 155 147 157 140 114 106 90 75 56 46 41 23 9 34 57 344 346 11 10 5 13 9 7 8 7 6 2 358 356 352 350 348 346 344 341 339 334 329 324 318 313 306 300 295 290 287 285 283 282 282 282 282 281 280 279 279 279 281 283
125 115 103 101 114 118 119 121 121 115 116 134 143 141 174 254 146 161 144 124 119 97 86 78 70 54 23 9 22 44 342 2 28 346 345 5 4 0 6 4 1 1 357 353 351 349 346 344 342 339 337 334 331 327 322 318 313 309 305 300 298 295 292 290 289 287 286 285 282 279 276 273 272 274
131 123 110 105 116 116 112 110 111 109 109 120 117 108 123 33 59 118 144 141 131 112 107 109 94 97 82 4 338 352 356 358 11 353 346 354 352 349 356 1 357 353 351 349 345 343 341 339 336 334 332 329 327 324 321 318 315 312 309 306 303 301 299 298 296 294 293 291 289 287 284 279 273 270
127 119 111 115 116 108 103 105 104 106 108 110 102 97 101 77 77 99 140 140 134 139 143 87 358 320 51 35 346 349 343 340 1 5 331 334 350 351 342 344 345 341 341 341 337 336 333 331 330 327 325 322 320 318 316 314 313 311 309 307 305 302 300 298 296 295 294 292 290 289 288 286 282 276
124 117 120 135 131 116 116 123 116 119 119 111 104 98 99 99 90 95 122 122 127 186 286 117 241 312 23 68 304 299 305 329 353 341 319 338 1 355 329 323 324 327 333 332 329 329 326 324 323 320 318 317 315 313 312 310 309 308 307 305 304 302 300 299 297 295 293 291 290 288 286 286 285 282
143 135 134 151 153 146 143 144 145 152 152 155 153 141 115 114 109 74 118 145 150 230 339 169 236 317 25 296 290 307 319 341 348 304 314 337 347 331 317 315 313 315 323 328 328 327 325 323 321 319 317 314 312 310 309 307 306 305 305 304 303 302 300 299 297 295 294 292 290 288 286 285 284 282
161 152 151 174 185 181 166 157 164 176 186 212 176 163 177 156 132 70 148 184 151 167 262 285 231 282 344 338 301 305 316 339 353 323 301 308 312 317 321 317 309 308 313 321 323 321 319 318 318 318 316 314 312 310 308 306 305 304 303 303 302 302 301 299 298 296 294 292 291 289 288 286 285 282
172 166 164 181 194 193 179 173 189 191 195 213 165 172 194 186 177 147 140 167 29 154 253 316 277 292 329 332 322 307 307 325 338 334 315 311 307 308 315 317 309 305 311 316 316 313 309 307 307 309 310 310 310 309 308 307 307 306 305 304 303 301 300 298 297 296 294 292 291 289 288 287 285 283
177 178 179 189 197 196 188 185 197 197 197 205 195 194 204 202 202 203 181 216 260 256 258 285 298 309 312 303 312 322 314 315 321 323 319 314 310 313 320 323 315 308 312 316 317 317 316 314 312 311 310 310 308 306 305 305 305 306 306 306 305 303 302 300 297 295 294 292 290 288 287 285 283 281
190 193 195 200 205 208 204 199 200 205 206 206 209 216 219 220 215 213 219 228 243 258 262 265 279 294 290 281 295 311 312 311 314 317 316 310 310 315 316 313 312 310 308 310 316 321 323 321 319 318 316 316 313 308 306 305 303 304 306 308 306 305 304 302 301 299 296 293 290 289 287 284 281 279
208 212 214 215 218 220 221 220 216 219 224 220 221 226 226 229 232 223 230 242 246 254 266 269 274 283 283 280 285 295 303 305 304 310 314 310 311 315 312 309 312 312 303 302 310 318 318 317 320 321 319 320 319 313 312 313 309 307 308 307 305 305 305 305 304 303 300 297 293 290 288 285 281 278
214 217 223 227 232 234 234 235 229 227 235 237 235 239 239 238 241 240 237 246 255 258 264 270 275 282 282 278 282 291 295 299 305 311 313 311 311 314 316 314 313 313 307 299 300 306 309 313 318 319 318 318 316 312 314 315 312 313 314 311 308 307 307 307 306 304 302 300 297 294 290 287 283 279
221 222 226 228 234 240 239 238 236 232 234 238 237 238 243 241 240 242 241 247 261 264 265 272 275 278 278 274 283 296 296 295 302 306 307 308 310 314 317 315 314 315 311 302 298 299 303 310 316 317 315 311 307 308 313 312 312 316 319 317 315 311 308 306 305 304 302 300 298 296 293 289 286 282
229 233 240 239 236 239 243 243 245 245 243 245 245 239 239 239 236 237 243 251 260 260 264 273 275 275 278 277 283 294 295 294 295 296 301 305 307 312 316 313 312 315 311 305 300 298 302 310 315 314 308 299 298 303 305 304 309 315 317 317 316 312 308 306 303 302 301 300 298 297 295 293 289 285
234 237 251 259 248 246 255 253 248 249 251 252 253 250 247 245 243 245 251 254 253 256 266 274 272 272 276 276 279 287 290 288 281 280 293 304 306 307 308 305 306 310 309 303 299 298 302 308 310 306 302 298 296 297 295 296 304 311 314 315 313 310 308 306 304 302 300 298 297 296 295 294 291 288
240 237 241 258 256 251 259 260 254 253 253 251 253 256 255 253 252 255 259 256 244 240 253 269 273 275 276 275 276 275 273 276 281 286 293 301 302 302 303 301 300 301 301 299 298 299 303 306 305 304 304 300 295 295 294 297 303 309 313 314 313 311 309 306 304 303 300 298 296 295 294 292 291 289
244 241 237 241 249 249 251 258 260 256 253 253 253 254 256 258 260 262 265 262 251 238 234 244 270 274 265 261 262 260 265 280 292 295 296 296 295 297 299 298 297 299 301 301 300 300 303 305 303 300 300 299 297 296 295 297 302 308 312 313 313 312 310 307 304 302 300 297 295 293 292 290 289 288
245 243 242 239 239 243 246 250 246 240 249 261 263 259 259 259 261 262 263 261 255 247 240 240 247 252 247 249 261 269 280 291 294 294 294 293 295 297 299 301 303 306 309 308 300 296 299 301 298 295 298 301 300 297 296 296 299 303 307 310 311 312 311 309 305 300 297 296 293 291 288 286 285 284
242 240 239 232 227 234 241 243 237 236 250 263 267 265 265 263 263 265 265 263 259 255 249 245 248 254 258 265 275 282 289 293 293 294 295 296 299 302 303 305 306 307 307 302 294 290 292 295 293 293 297 298 298 297 295 295 297 300 302 305 307 310 312 312 308 302 298 295 291 287 283 281 279 279
227 225 221 215 225 234 233 232 235 239 250 260 264 266 267 267 269 271 271 266 259 256 255 253 255 262 268 274 280 286 290 291 293 295 296 298 302 302 300 297 297 296 296 295 292 289 291 292 292 293 295 295 295 295 295 296 298 298 298 300 304 308 312 315 316 314 312 309 302 294 286 280 276 275
208 212 205 206 222 229 225 225 230 234 244 253 258 262 264 267 268 266 261 256 252 251 253 255 259 266 273 278 282 286 288 291 294 295 296 298 299 297 294 293 294 294 294 295 294 290 289 291 292 293 294 294 293 294 297 299 299 296 294 297 304 311 314 318 321 321 320 321 317 309 300 293 288 285
209 211 208 215 223 222 220 223 226 230 231 229 240 253 259 261 263 260 255 251 252 254 256 260 266 271 276 280 284 287 289 292 294 294 293 293 295 295 294 294 295 295 296 298 296 293 292 294 296 297 298 296 294 295 297 297 296 296 296 300 307 311 312 314 316 319 322 324 322 319 316 314 311 307
210 205 205 215 219 216 216 214 215 224 212 197 211 233 235 234 249 255 257 258 259 262 267 271 274 276 279 283 287 290 292 295 296 296 297 298 302 300 296 296 298 297 298 294 289 293 299 300 298 300 301 300 298 298 298 297 297 297 297 301 305 306 309 311 310 313 319 320 317 315 316 317 317 316
205 202 204 210 209 208 210 203 203 208 197 191 199 211 216 221 230 240 252 264 268 271 277 281 284 289 293 297 300 303 309 313 313 310 307 305 305 298 295 298 296 293 295 294 290 294 299 299 298 299 298 296 297 300 300 300 299 295 293 294 294 293 303 311 310 309 314 313 310 310 312 313 313 311
198 198 201 202 201 200 199 197 199 200 201 209 219 224 225 226 231 242 257 271 277 281 288 293 295 299 302 302 301 302 308 311 311 309 307 305 300 291 291 294 291 289 290 290 290 295 298 297 297 298 296 293 294 297 298 298 299 297 296 298 297 293 298 306 304 300 301 302 303 305 304 304 307 307
189 196 195 192 194 193 193 197 199 202 211 223 234 239 237 237 243 251 262 274 284 289 294 295 291 290 292 292 288 289 294 296 291 285 281 278 273 272 278 283 286 290 292 289 288 293 295 294 293 295 294 293 293 295 297 297 299 301 301 302 304 301 299 299 296 292 292 295 297 298 296 295 299 303
183 195 187 184 189 189 192 200 203 220 232 235 242 248 251 254 257 261 268 277 283 284 283 284 287 290 291 289 289 292 291 283 277 277 278 280 284 290 293 292 290 289 289 290 290 290 289 289 290 290 291 293 295 296 297 298 300 303 304 304 304 302 298 295 294 293 294 295 296 298 297 295 295 300
191 197 183 182 191 190 195 210 221 245 253 256 265 266 264 267 268 270 277 281 280 283 288 292 294 293 291 293 293 288 283 286 295 305 310 309 306 298 288 284 283 278 274 280 289 289 287 288 289 289 291 292 294 295 295 297 299 301 302 303 304 302 299 296 296 295 296 297 297 299 300 298 295 299
199 196 183 186 194 193 205 230 249 269 273 274 275 271 269 275 275 267 266 269 277 288 294 293 293 293 293 295 292 285 289 304 322 327 315 303 295 287 279 281 286 283 277 282 290 289 286 287 287 288 289 288 289 290 292 295 297 298 300 301 301 302 301 299 300 298 297 298 298 298 298 293 286 286
201 190 186 194 197 200 222 258 263 270 274 271 268 268 271 269 247 253 268 272 274 283 289 291 296 298 295 292 293 294 302 315 318 304 294 295 298 297 294 293 294 293 289 289 289 287 286 286 286 286 287 286 285 286 289 292 293 294 296 298 299 300 301 301 301 299 298 298 298 298 298 292 286 285
201 194 195 197 198 207 226 243 248 255 260 261 266 272 267 256 255 267 279 284 285 285 291 296 296 295 296 299 302 305 306 307 304 298 298 300 299 297 298 297 295 296 296 294 293 292 289 287 286 285 284 284 284 285 286 288 289 291 295 297 297 299 299 300 300 299 299 300 298 298 300 298 295 293
200 197 197 194 194 203 217 228 242 247 237 236 236 213 226 264 291 303 310 320 326 309 288 297 301 303 306 308 309 309 307 305 307 308 305 302 299 298 298 296 295 297 299 299 299 296 293 289 287 285 283 281 282 284 285 285 286 289 293 295 295 295 295 297 298 298 300 301 300 300 301 301 299 296
198 196 196 194 193 195 198 197 187 179 183 201 237 244 236 240 272 301 320 341 330 287 290 305 311 312 313 311 308 308 308 305 304 305 303 302 301 299 296 294 295 299 300 301 302 301 299 296 290 286 284 281 280 280 281 282 286 290 291 293 294 294 295 296 295 295 297 298 297 297 298 299 298 294
198 197 193 189 189 185 173 166 168 175 181 194 245 275 280 238 236 267 289 283 278 294 309 322 323 315 310 310 310 309 306 302 302 303 303 303 302 300 298 297 297 298 299 301 302 302 302 301 298 292 288 284 281 278 274 277 286 293 293 291 291 292 294 294 293 292 292 292 291 291 296 301 301 297
196 195 188 182 177 169 163 168 175 180 182 180 196 243 280 269 268 294 298 275 292 312 325 328 319 313 313 313 311 309 307 306 306 305 303 303 302 299 299 298 298 300 302 301 301 303 303 302 301 297 294 292 291 289 285 283 288 292 291 289 289 290 291 293 293 290 287 286 289 293 298 304 307 307
191 187 181 176 172 166 167 177 184 188 196 203 206 210 215 215 240 277 273 286 309 327 333 328 319 315 315 312 308 308 308 307 307 307 307 307 305 301 301 301 299 300 301 300 302 304 302 298 299 299 299 299 297 293 294 298 296 292 290 289 289 289 289 291 291 288 287 288 290 293 296 301 304 304
180 178 175 174 176 173 173 184 197 201 206 218 217 202 195 202 224 257 277 300 321 327 326 330 327 315 311 312 309 310 311 309 308 309 309 308 307 305 304 302 301 302 303 303 302 302 299 297 303 304 301 298 294 291 295 303 303 296 293 294 295 294 293 293 292 292 295 298 298 297 299 301 300 298
177 182 180 177 179 177 175 188 205 207 203 210 207 193 192 192 205 255 280 294 307 314 321 328 320 311 312 314 312 312 313 312 311 313 313 311 310 308 305 304 304 304 304 302 302 304 304 304 309 309 302 294 292 292 296 300 300 300 303 304 303 301 298 295 293 292 294 299 302 301 297 294 294 298
183 187 185 180 178 175 178 193 209 203 192 194 188 180 188 196 213 247 273 279 302 327 345 346 318 314 316 315 316 316 316 316 316 316 314 311 309 307 305 304 304 304 304 306 310 316 317 315 312 308 299 289 288 289 290 291 295 302 309 310 307 305 304 304 301 298 296 297 299 298 293 292 297 304
186 186 185 180 174 171 175 185 192 184 175 174 183 194 194 190 221 241 252 273 313 347 11 358 318 319 321 319 322 322 319 319 319 316 312 311 309 307 305 305 305 306 305 307 311 317 320 320 318 313 305 297 294 293 291 291 297 309 320 321 314 313 314 313 312 309 304 300 298 297 298 302 305 304
186 182 178 173 168 167 168 166 165 166 164 171 213 226 217 206 226 241 262 301 331 1 19 355 319 323 325 323 326 326 323 322 319 314 312 312 309 307 306 307 308 309 308 309 313 318 322 324 325 323 318 314 308 303 301 302 308 318 325 321 314 311 309 308 308 307 303 299 296 294 295 298 300 300
184 176 169 166 164 162 159 156 161 174 175 182 217 231 222 222 240 261 309 337 343 356 3 344 324 326 328 328 330 328 324 321 316 313 316 320 319 316 315 313 310 309 309 312 318 324 327 329 332 332 329 324 316 308 306 310 315 319 321 317 310 307 306 305 304 304 303 301 297 294 292 292 292 293
180 170 164 164 160 157 158 164 174 186 188 194 215 224 221 227 244 270 338 351 336 336 339 336 330 331 333 332 329 326 322 317 316 321 329 333 331 324 317 314 312 311 311 313 320 328 333 335 336 335 331 325 314 304 303 309 312 313 314 310 304 304 306 307 305 306 306 302 296 292 290 287 286 286
173 166 163 160 156 156 166 171 175 184 189 198 217 224 222 223 229 241 314 310 301 320 337 343 336 333 334 331 326 325 326 323 325 331 332 329 325 321 318 317 316 316 315 314 318 326 332 335 336 335 331 326 318 306 303 307 309 307 306 305 301 301 305 307 306 308 312 313 310 303 297 292 289 290
161 158 158 155 151 155 165 165 167 181 191 198 213 218 214 217 218 206 10 313 298 318 339 343 336 338 342 341 336 332 332 330 329 329 326 323 322 323 322 320 318 319 319 317 317 323 331 336 339 338 332 327 320 308 304 312 317 311 308 311 309 306 308 310 311 314 322 332 335 329 321 315 309 308